Wind_Speed
10 9 11 12 7 6 8 16 9 14 16 16 14 7 7 10 16 8 10 12 14 22 25 27 28 28 26 25 23 20 18 15 12 7 6 9 8 8 8 9 9 9 10 9 8 8 8 8 8
10 10 13 11 8 9 13 13 14 12 13 13 13 14 9 7 9 10 8 14 20 23 28 28 29 29 31 27 24 21 18 15 11 10 11 10 9 10 9 9 9 8 7 7 7 7 7 7 8
10 12 13 8 10 17 15 6 9 16 10 8 12 13 11 12 19 20 13 10 15 23 28 31 33 34 31 28 24 21 18 14 11 13 13 12 12 11 11 9 8 7 7 8 8 9 9 10 10
12 13 12 11 14 11 16 20 15 14 7 9 5 7 11 12 17 14 13 13 20 24 33 37 37 37 34 27 23 20 17 12 11 14 13 14 12 11 11 10 8 7 7 8 8 9 11 12 10
13 13 12 13 10 9 12 9 16 10 7 3 5 6 5 6 9 14 15 17 23 23 38 40 34 34 32 24 21 16 12 11 14 14 14 13 12 11 10 8 6 5 6 7 7 9 11 13 12
13 12 6 19 3 11 13 8 10 6 4 7 4 5 4 5 8 8 12 15 22 32 43 38 34 32 34 28 19 15 11 13 14 13 13 12 11 10 7 5 3 2 3 3 5 6 7 8 11
14 11 15 13 7 13 15 17 14 12 4 6 4 4 5 6 5 8 12 16 29 32 29 32 37 37 34 30 21 13 15 15 15 16 15 13 11 8 5 3 2 3 3 4 5 6 6 7 9
9 9 12 11 10 19 11 11 12 18 21 16 6 6 6 5 5 5 14 13 20 37 39 36 35 39 27 22 15 15 17 17 17 15 12 11 9 6 4 4 5 7 7 8 8 9 11 11 13
10 11 12 10 11 21 10 12 13 11 9 13 9 9 11 11 6 4 5 14 27 25 30 23 22 29 22 16 16 17 17 16 15 14 14 12 9 6 6 5 7 10 11 11 12 13 15 17 15
10 11 10 6 11 12 9 11 11 14 16 12 11 6 6 13 13 2 6 15 18 26 14 23 24 22 20 14 12 13 15 16 15 14 12 10 8 8 7 7 10 13 14 12 12 16 17 17 19
8 14 8 9 17 12 14 14 7 13 12 11 4 5 2 5 9 3 8 16 9 22 26 27 23 22 17 13 13 14 14 14 14 14 14 12 12 11 10 11 12 13 14 16 17 18 21 25 26
9 8 13 15 18 10 5 2 8 11 11 5 3 2 1 5 11 10 15 17 17 21 26 22 17 17 13 11 11 12 12 14 14 15 14 14 14 12 13 13 15 16 19 21 23 24 25 26 24
13 16 7 4 10 6 4 3 6 11 6 6 5 1 5 8 16 15 11 4 13 21 26 22 17 13 11 9 9 11 10 12 12 12 14 14 14 13 15 17 17 21 23 26 23 22 24 24 23
13 0 7 9 6 4 2 0 8 5 4 6 7 6 9 10 11 11 7 7 7 14 18 19 16 13 10 7 8 8 8 6 6 11 14 14 12 13 17 16 22 24 22 21 21 23 24 25 25
8 6 6 8 10 5 2 7 6 9 6 9 11 11 11 12 10 10 7 5 4 7 12 12 11 9 9 9 8 6 6 6 8 11 12 16 17 20 19 20 20 21 21 22 23 23 25 27 29
4 2 13 15 11 2 3 7 5 12 11 7 13 14 14 14 12 9 8 8 5 8 10 10 10 11 10 8 5 3 0 5 9 14 15 19 23 24 26 27 27 26 25 24 24 26 29 31 33
7 4 12 15 10 9 2 8 9 11 11 8 11 16 15 14 7 5 8 11 9 8 6 6 5 4 4 2 2 2 5 8 13 15 19 22 27 31 32 32 28 25 25 24 26 29 32 32 34
6 7 11 5 14 16 9 5 9 9 10 9 8 11 13 8 5 7 10 12 10 7 5 5 3 3 4 6 7 8 8 10 13 17 18 18 20 20 19 20 23 24 23 26 30 32 31 33 35
7 10 12 9 9 16 16 10 8 12 14 15 14 10 10 8 7 6 6 6 11 10 7 5 6 8 9 12 12 12 11 12 13 16 17 19 20 21 19 21 22 23 26 29 31 34 32 33 35
3 7 14 12 12 23 21 17 10 15 18 19 15 14 13 11 13 13 10 9 10 10 10 11 10 10 13 15 15 16 16 14 17 17 21 21 19 18 19 22 26 29 29 28 33 33 34 35 34
12 11 10 14 11 10 11 18 16 19 21 23 19 15 15 13 14 16 15 14 15 14 13 14 14 14 16 19 20 20 18 16 17 18 18 18 19 20 24 28 29 30 31 34 36 36 37 36 34
15 14 17 17 9 11 6 7 6 20 18 28 25 23 21 18 18 18 18 17 17 19 19 20 19 18 20 21 23 19 16 16 18 18 17 19 21 26 28 26 26 27 33 31 35 37 36 38 36
11 11 15 15 15 9 10 5 4 14 21 24 29 29 27 27 26 24 21 20 20 20 20 22 24 24 23 25 23 16 16 17 18 19 19 21 24 28 26 28 31 34 42 40 36 37 38 38 38
15 9 8 12 6 3 1 3 8 12 21 22 23 28 28 31 30 25 26 24 23 25 23 22 24 30 28 25 17 14 16 16 19 21 21 23 26 29 32 35 34 32 40 44 38 36 41 40 40
12 10 3 3 2 5 6 3 14 14 17 24 27 22 27 27 31 30 28 28 26 29 27 24 28 27 30 23 18 18 19 18 20 23 26 30 32 35 35 35 42 41 41 44 33 37 40 41 41
5 8 4 4 2 4 5 5 6 15 10 11 17 23 24 31 24 24 25 26 27 27 25 25 24 21 24 21 18 21 21 22 24 29 33 35 36 38 42 48 43 41 32 38 37 37 40 42 42
7 10 6 6 2 3 6 2 7 6 8 12 17 18 23 26 25 26 27 24 24 29 26 27 23 21 23 21 22 23 25 28 32 35 38 40 43 42 47 47 53 51 40 37 36 37 40 42 40
17 7 4 5 3 3 5 5 7 8 3 5 7 15 15 16 21 22 25 28 30 28 26 25 25 24 24 25 25 26 28 31 35 36 39 43 44 41 53 50 53 51 42 35 34 36 40 38 38
15 12 13 11 4 4 1 3 5 3 2 7 3 3 5 10 8 9 10 13 14 17 20 22 24 23 26 27 29 32 34 35 37 38 39 41 57 46 47 53 50 43 35 35 37 38 34 34 37
9 15 18 12 6 4 2 7 8 7 11 4 1 3 8 12 11 9 9 11 11 12 17 18 17 18 20 21 23 26 31 32 36 38 44 50 46 51 52 51 48 40 39 37 31 30 35 35 36
Wind_Direction
252 232 220 221 217 235 255 255 275 288 267 246 245 249 193 190 186 223 219 212 195 177 181 190 190 189 187 185 178 175 172 172 174 179 178 172 160 140 129 119 107 97 94 89 79 64 50 27 5
242 227 217 223 223 231 262 277 264 258 234 235 241 262 286 275 279 288 255 187 176 192 194 195 195 194 191 181 178 174 172 172 175 173 170 164 157 141 129 119 109 102 96 87 76 64 47 28 359
222 218 213 218 235 240 258 326 266 242 261 259 245 253 268 282 279 283 281 207 198 204 205 198 194 194 186 180 176 172 173 175 178 166 160 154 149 138 130 122 116 107 93 77 59 47 41 37 0
216 211 210 219 234 246 294 288 257 258 254 200 224 249 256 257 258 265 271 250 230 211 205 195 190 186 181 173 172 170 169 175 175 166 156 151 145 139 135 129 119 107 81 63 51 46 48 44 22
205 209 205 219 251 299 311 290 217 205 188 257 265 257 263 275 273 273 248 245 218 210 202 190 181 173 172 164 164 161 171 176 175 165 155 150 143 143 141 134 118 91 65 50 40 44 46 47 28
200 200 226 232 294 321 310 216 230 260 278 265 257 280 282 274 265 269 269 244 232 213 193 177 173 168 167 158 157 163 175 180 175 159 154 156 155 149 152 144 126 80 46 27 25 11 6 9 22
210 211 232 257 276 304 288 252 254 258 249 295 216 259 191 190 273 275 254 236 186 178 170 170 171 165 158 132 145 170 174 176 172 162 165 161 159 166 166 187 264 273 305 333 359 351 346 353 3
212 244 265 279 295 327 319 258 278 283 295 290 258 253 247 231 277 268 226 203 191 191 181 175 168 152 116 120 157 169 175 175 173 169 174 170 170 180 199 241 266 286 296 312 331 341 342 339 334
203 249 235 260 334 324 308 288 278 245 241 222 216 249 283 259 240 213 232 195 165 158 144 156 129 130 126 149 166 174 176 179 178 177 180 181 190 204 228 255 282 289 296 310 330 337 330 333 329
212 244 268 310 326 310 308 307 285 235 249 220 238 255 257 236 248 207 269 258 233 224 192 138 129 126 146 161 175 174 189 191 186 187 193 197 207 228 249 274 288 297 314 323 319 325 321 319 320
240 234 270 296 309 269 301 296 254 204 229 215 214 199 330 225 177 135 9 148 166 126 127 148 138 142 158 172 181 182 192 190 186 185 195 206 220 237 253 277 296 302 312 312 321 330 325 330 331
267 271 293 300 285 268 278 282 170 181 197 216 244 203 208 163 130 84 115 102 128 132 134 132 149 155 168 177 185 190 195 197 201 204 213 224 241 261 286 298 293 296 312 320 324 333 328 319 322
305 303 284 150 234 227 275 156 185 196 186 202 218 216 168 158 158 146 108 96 105 115 142 148 157 159 174 179 191 202 202 209 219 231 238 246 259 279 294 301 292 306 312 317 325 326 319 319 322
324 36 206 255 226 182 78 206 221 196 171 155 151 160 171 176 181 163 137 152 120 121 128 148 150 156 167 157 184 205 214 215 240 248 257 272 283 290 295 300 308 316 316 316 316 316 314 313 318
85 170 222 193 186 132 109 149 195 192 160 199 186 176 171 175 165 156 161 157 109 86 111 115 119 117 126 128 149 169 197 225 270 294 289 277 277 285 295 316 316 308 307 307 307 308 308 308 315
148 310 174 172 165 229 8 176 208 200 189 220 182 161 182 173 151 136 135 153 153 120 108 118 118 120 136 138 149 180 184 305 298 284 286 272 276 285 292 298 302 302 299 302 306 307 304 304 306
201 190 179 170 239 202 324 170 220 203 187 154 138 170 171 168 177 125 126 137 144 138 122 101 105 131 136 151 15 326 295 298 273 285 282 279 276 276 283 284 287 291 292 297 301 301 299 300 303
258 229 187 290 234 223 235 197 238 202 188 182 163 167 180 179 154 127 126 136 153 161 169 166 177 241 245 262 280 292 273 276 272 276 280 282 286 289 284 279 279 281 292 299 298 296 295 296 298
250 184 211 266 278 230 238 223 227 228 207 195 199 200 201 203 213 200 173 174 170 186 182 178 218 252 257 270 279 278 283 272 262 265 267 268 272 271 272 273 277 286 292 293 294 291 290 296 299
244 166 280 287 301 233 226 229 243 229 226 215 219 214 223 220 230 230 230 224 213 213 211 217 232 261 273 277 272 272 275 264 255 253 254 257 266 274 274 277 281 281 285 289 301 295 296 297 298
170 222 289 281 297 239 227 229 243 228 227 221 230 244 242 260 252 249 250 250 243 247 247 245 254 269 278 275 269 275 267 261 252 256 256 275 279 278 278 279 281 276 292 290 300 297 295 296 298
243 256 279 288 304 310 232 212 213 218 220 219 229 232 244 252 261 263 266 272 282 274 274 271 268 266 272 268 271 271 264 264 265 266 276 283 275 273 281 290 299 288 299 293 297 295 296 296 297
252 263 269 247 289 290 217 229 223 218 220 219 228 236 246 254 260 267 273 282 285 291 282 278 266 264 268 270 271 255 264 272 277 277 283 283 280 284 294 293 292 306 308 300 296 299 294 294 297
256 287 297 263 258 224 340 320 283 233 241 236 234 235 246 246 253 260 266 267 276 281 275 278 267 273 272 278 259 267 281 298 286 277 285 284 287 291 292 292 291 293 313 303 298 299 297 298 302
247 303 303 343 335 223 278 278 278 268 255 253 242 254 245 247 244 250 256 259 267 278 277 276 279 267 270 267 260 284 296 291 279 275 280 282 285 290 287 280 289 296 305 298 297 295 297 298 297
261 281 218 221 225 275 251 229 278 302 258 233 248 248 251 238 239 245 258 263 267 273 277 282 285 269 262 260 268 282 282 281 284 276 279 284 283 277 282 292 296 284 290 294 291 294 293 295 295
260 267 268 200 231 318 276 295 268 253 231 211 230 227 239 238 238 249 259 263 261 271 271 276 275 271 258 262 269 279 281 283 287 285 279 280 277 296 281 300 302 287 291 287 296 293 294 294 296
232 249 236 248 151 243 278 284 235 197 206 232 232 235 242 244 245 253 264 269 264 267 272 274 276 265 253 263 270 280 281 281 282 281 278 278 287 292 292 299 289 294 291 296 289 291 292 296 303
223 250 252 248 234 170 185 257 200 182 114 0 14 9 218 219 244 255 259 266 264 264 267 269 273 270 272 278 277 281 280 277 278 283 285 288 293 300 297 292 296 294 292 285 293 297 299 304 303
231 246 255 234 223 212 203 250 256 255 295 279 297 263 266 259 265 284 294 298 301 304 295 290 292 290 285 288 293 291 294 294 291 293 294 281 302 303 296 290 291 288 289 296 299 299 303 304 304
Height
3147 3147 3148 3149 3155 3151 3150 3148 3147 3146 3147 3147 3148 3147 3148 3149 3149 3151 3147 3148 3149 3152 3155 3157 3160 3162 3165 3167 3168 3170 3172 3173 3174 3176 3177 3177 3177 3179 3179 3180 3181 3181 3179 3178 3178 3178 3176 3174 3172
3145 3145 3147 3147 3149 3148 3146 3146 3144 3145 3145 3145 3146 3145 3145 3146 3146 3146 3147 3147 3148 3151 3153 3155 3158 3161 3162 3165 3166 3169 3170 3172 3173 3174 3175 3177 3178 3180 3180 3181 3181 3182 3179 3178 3179 3177 3178 3175 3172
3142 3143 3145 3146 3146 3144 3144 3145 3144 3144 3145 3145 3146 3144 3144 3144 3144 3144 3143 3145 3147 3150 3152 3153 3155 3157 3160 3162 3165 3167 3169 3171 3173 3173 3174 3176 3178 3180 3180 3182 3182 3181 3181 3179 3179 3178 3178 3177 3171
3140 3141 3144 3143 3142 3145 3144 3144 3144 3144 3144 3143 3143 3143 3143 3142 3141 3142 3142 3144 3145 3147 3149 3151 3152 3151 3155 3160 3164 3167 3168 3170 3172 3173 3174 3177 3179 3180 3181 3181 3182 3182 3181 3180 3180 3180 3180 3178 3175
3138 3139 3140 3140 3142 3146 3143 3139 3141 3142 3142 3142 3142 3141 3141 3140 3141 3141 3141 3142 3143 3144 3146 3142 3150 3148 3152 3159 3164 3166 3169 3171 3171 3173 3175 3177 3178 3180 3182 3183 3183 3183 3182 3181 3181 3182 3181 3180 3178
3137 3138 3140 3136 3143 3143 3143 3143 3140 3142 3141 3141 3141 3140 3140 3140 3139 3139 3138 3138 3138 3139 3137 3137 3141 3146 3150 3156 3161 3165 3169 3172 3173 3174 3175 3178 3179 3181 3182 3183 3183 3183 3182 3181 3181 3180 3180 3179 3178
3136 3137 3136 3136 3140 3142 3142 3141 3139 3139 3139 3141 3141 3140 3139 3139 3138 3139 3139 3137 3122 3133 3137 3133 3137 3140 3150 3156 3157 3164 3168 3171 3172 3172 3175 3177 3179 3181 3182 3182 3182 3181 3181 3181 3180 3179 3178 3178 3177
3136 3136 3135 3136 3137 3139 3137 3138 3137 3137 3137 3138 3139 3138 3138 3138 3138 3139 3139 3138 3132 3131 3130 3136 3140 3144 3151 3149 3158 3165 3168 3170 3171 3173 3175 3177 3179 3180 3181 3181 3180 3179 3180 3179 3179 3177 3177 3177 3176
3136 3135 3131 3134 3136 3138 3137 3135 3136 3136 3134 3134 3135 3138 3138 3137 3136 3138 3139 3140 3133 3131 3131 3137 3142 3146 3149 3157 3161 3164 3167 3169 3172 3174 3176 3177 3178 3179 3179 3178 3178 3178 3177 3178 3178 3177 3175 3175 3174
3135 3134 3130 3135 3135 3135 3136 3135 3134 3135 3130 3133 3135 3135 3135 3135 3136 3137 3138 3135 3136 3135 3139 3140 3146 3147 3154 3160 3162 3164 3168 3171 3173 3174 3175 3175 3176 3177 3177 3176 3177 3177 3177 3177 3176 3175 3173 3172 3171
3134 3131 3132 3133 3133 3134 3134 3132 3132 3133 3131 3135 3135 3134 3134 3134 3136 3137 3134 3133 3135 3134 3138 3142 3148 3149 3156 3160 3163 3165 3168 3170 3171 3173 3173 3173 3174 3174 3174 3174 3176 3177 3176 3174 3172 3171 3169 3167 3164
3132 3130 3130 3130 3131 3133 3133 3131 3131 3131 3132 3134 3135 3134 3133 3134 3138 3140 3139 3142 3141 3140 3138 3144 3148 3152 3156 3161 3164 3166 3167 3169 3169 3171 3172 3173 3173 3174 3174 3172 3173 3173 3172 3171 3168 3165 3165 3165 3164
3130 3129 3129 3129 3131 3133 3133 3131 3130 3131 3133 3134 3134 3133 3134 3136 3138 3138 3140 3143 3142 3142 3142 3144 3149 3153 3158 3162 3164 3166 3167 3169 3169 3170 3171 3172 3171 3173 3172 3169 3169 3170 3168 3166 3164 3164 3163 3162 3160
3127 3125 3128 3130 3132 3133 3133 3131 3130 3130 3132 3133 3133 3134 3133 3137 3139 3140 3141 3142 3142 3144 3146 3148 3150 3153 3158 3161 3164 3166 3167 3167 3168 3169 3169 3168 3168 3169 3168 3169 3166 3164 3164 3164 3163 3161 3161 3160 3156
3128 3129 3129 3131 3133 3132 3134 3133 3132 3131 3132 3131 3132 3135 3136 3138 3140 3142 3144 3144 3144 3146 3148 3148 3150 3153 3158 3162 3164 3165 3166 3167 3167 3166 3166 3166 3166 3166 3165 3164 3163 3164 3163 3163 3161 3158 3158 3157 3152
3127 3128 3132 3132 3132 3134 3136 3133 3132 3133 3134 3133 3133 3134 3134 3137 3140 3142 3144 3145 3147 3146 3146 3150 3153 3156 3159 3160 3162 3164 3164 3165 3165 3165 3165 3165 3165 3163 3163 3163 3163 3163 3161 3159 3157 3155 3155 3152 3148
3126 3128 3129 3130 3132 3131 3130 3132 3132 3133 3133 3133 3133 3133 3135 3136 3139 3142 3144 3146 3147 3147 3147 3150 3152 3154 3155 3157 3159 3161 3163 3164 3165 3163 3163 3162 3162 3161 3160 3159 3159 3159 3158 3156 3154 3153 3150 3147 3144
3125 3126 3127 3129 3130 3130 3129 3130 3130 3132 3132 3132 3132 3134 3134 3136 3138 3141 3143 3145 3146 3146 3149 3152 3153 3155 3157 3159 3161 3162 3162 3162 3162 3161 3161 3160 3159 3157 3157 3157 3157 3156 3153 3151 3149 3148 3145 3142 3139
3126 3125 3128 3128 3127 3128 3127 3128 3128 3130 3131 3130 3131 3132 3134 3135 3137 3140 3141 3143 3146 3148 3148 3151 3153 3155 3157 3158 3159 3159 3159 3159 3159 3159 3158 3158 3157 3157 3156 3155 3153 3150 3149 3147 3145 3142 3139 3135 3131
3126 3126 3125 3125 3124 3124 3126 3127 3129 3127 3128 3129 3130 3130 3132 3135 3136 3138 3140 3143 3146 3149 3150 3151 3152 3153 3155 3156 3155 3156 3156 3156 3156 3156 3155 3155 3154 3152 3151 3151 3149 3147 3145 3143 3139 3134 3130 3127 3123
3125 3126 3124 3124 3125 3125 3125 3126 3126 3127 3128 3130 3130 3131 3131 3131 3133 3136 3139 3143 3145 3146 3148 3149 3150 3151 3150 3150 3150 3152 3152 3152 3151 3152 3150 3148 3146 3146 3146 3147 3145 3143 3141 3137 3132 3127 3123 3118 3115
3125 3125 3122 3123 3123 3123 3123 3123 3121 3123 3125 3127 3129 3129 3129 3131 3131 3132 3135 3137 3139 3142 3144 3145 3146 3147 3146 3146 3146 3147 3147 3146 3145 3144 3143 3144 3144 3144 3143 3142 3140 3137 3133 3129 3125 3121 3116 3111 3107
3123 3124 3123 3122 3122 3120 3119 3119 3117 3119 3121 3120 3122 3123 3126 3127 3129 3128 3131 3133 3134 3136 3139 3141 3141 3140 3142 3141 3141 3141 3141 3142 3141 3141 3141 3141 3140 3139 3139 3136 3132 3127 3124 3120 3116 3112 3108 3102 3097
3121 3121 3120 3119 3120 3119 3119 3119 3115 3115 3115 3115 3116 3119 3122 3124 3127 3129 3128 3129 3131 3133 3134 3135 3134 3134 3134 3134 3135 3136 3138 3138 3138 3137 3138 3137 3135 3132 3129 3125 3120 3116 3114 3111 3106 3102 3097 3093 3088
3120 3120 3120 3121 3119 3118 3116 3116 3114 3113 3114 3114 3116 3119 3120 3120 3123 3125 3126 3127 3129 3129 3131 3131 3130 3129 3129 3131 3132 3133 3133 3134 3133 3132 3131 3129 3126 3122 3119 3116 3112 3108 3103 3099 3095 3092 3088 3084 3079
3117 3119 3118 3121 3122 3115 3114 3111 3110 3109 3109 3111 3113 3116 3117 3117 3120 3123 3124 3126 3127 3127 3127 3126 3126 3125 3125 3127 3128 3128 3127 3126 3126 3125 3122 3118 3116 3113 3110 3105 3103 3097 3091 3089 3086 3084 3081 3075 3071
3116 3116 3116 3115 3116 3116 3113 3109 3108 3108 3108 3109 3110 3112 3113 3114 3117 3120 3122 3124 3125 3123 3124 3123 3123 3122 3121 3122 3123 3122 3120 3119 3118 3116 3114 3112 3108 3105 3100 3099 3095 3090 3084 3080 3079 3076 3072 3066 3061
3115 3116 3115 3114 3117 3117 3111 3108 3107 3107 3108 3108 3109 3109 3110 3111 3115 3117 3119 3119 3121 3120 3118 3118 3118 3118 3119 3119 3118 3117 3116 3115 3113 3111 3108 3106 3105 3100 3096 3092 3087 3082 3076 3073 3071 3066 3061 3057 3051
3112 3111 3112 3113 3112 3111 3115 3109 3106 3106 3107 3108 3108 3108 3109 3110 3112 3114 3114 3114 3114 3114 3114 3113 3113 3112 3112 3113 3114 3114 3113 3111 3109 3107 3105 3102 3095 3093 3090 3084 3079 3072 3067 3064 3062 3057 3052 3046 3040
3106 3107 3109 3109 3110 3108 3108 3108 3106 3105 3105 3106 3106 3107 3107 3109 3110 3110 3110 3110 3110 3110 3109 3107 3106 3106 3108 3108 3108 3107 3106 3103 3101 3099 3095 3091 3089 3084 3080 3075 3068 3063 3059 3057 3053 3048 3042 3038 3033